Weather History for Llano, TX

Change the Weather History Date:

Monday, February 17, 2014

  Actual Average (KBMQ) Record (KBMQ)
Temperature  
Mean Temperature 60 °F -  
Max Temperature 77 °F 61 °F 78 °F (2000)
Min Temperature 44 °F 41 °F 30 °F (2001)
Degree Days  
Heating Degree Days 4    
Growing Degree Days 10 (Base 50)    
Moisture  
Dew Point 40 °F    
Average Humidity 60    
Maximum Humidity 100    
Minimum Humidity 17    
Precipitation  
Precipitation 0.00 in - - ()
Sea Level Pressure  
Sea Level Pressure 30.10 in    
Wind  
Wind Speed 4 mph (NNE)    
Max Wind Speed 21 mph    
Max Gust Speed 29 mph    
Visibility 6 miles    
Events Fog    
Averages and records for this station are not official NWS values.
T = Trace of Precipitation, MM = Missing Value Source: NWS Daily Summary

Daily Weather History Graph

Daily Weather History Graph

Search for Another Location

Airport:

Trip Planner

Search our weather history database for the weather conditions in past years. The results will help you decide how hot, cold, wet, or windy it might be!

Date:

Astronomy

Feb. 17, 2014 Rise Set
Actual Time 7:13 AM CST 6:24 PM CST
Civil Twilight 6:48 AM CST 6:48 PM CST
Nautical Twilight 6:20 AM CST 7:17 PM CST
Astronomical Twilight 5:52 AM CST 7:45 PM CST
Moon 9:04 PM CST (2/17) 8:28 AM CST (2/17)
Length of Visible Light 11h 59m
Length of Day
11h 10m
Waning Gibbous, 93% of the Moon is Illuminated
Feb 17
Waning Gibbous
Feb 22
Last Quarter
Mar 1
New
Mar 8
First Quarter
Mar 16
Full

Hourly Weather History & Observations

Time (CST) Temp. Dew Point Humidity Pressure Visibility Wind Dir Wind Speed Gust Speed Precip Events Conditions
12:15 AM 55.4 °F 55.4 °F 100% 29.99 in 1.2 mi Calm Calm - N/A   Clear
12:35 AM 53.6 °F 53.6 °F 100% 29.99 in 0.5 mi Calm Calm - N/A Fog Fog
12:55 AM 53.6 °F 53.6 °F 100% 29.99 in 0.2 mi Calm Calm - N/A Fog Fog
1:15 AM 51.8 °F 51.8 °F 100% 29.99 in 0.2 mi Calm Calm - N/A Fog Fog
1:35 AM 51.8 °F 51.8 °F 100% 29.99 in 0.2 mi Calm Calm - N/A Fog Fog
1:55 AM 48.2 °F 48.2 °F 100% 29.99 in 0.2 mi Calm Calm - N/A Fog Fog
2:15 AM 48.2 °F 48.2 °F 100% 29.98 in 0.2 mi Calm Calm - N/A Fog Fog
2:35 AM 48.2 °F 48.2 °F 100% 29.98 in 0.2 mi Calm Calm - N/A Fog Fog
2:55 AM 48.2 °F 48.2 °F 100% 29.98 in 0.2 mi Calm Calm - N/A Fog Fog
3:15 AM 46.4 °F 46.4 °F 100% 29.97 in 0.2 mi Calm Calm - N/A Fog Fog
3:35 AM 46.4 °F 46.4 °F 100% 29.97 in 0.2 mi Calm Calm - N/A Fog Fog
3:55 AM 46.4 °F 46.4 °F 100% 29.98 in 0.2 mi Calm Calm - N/A Fog Fog
4:15 AM 48.2 °F 48.2 °F 100% 29.98 in 1.0 mi NNW 4.6 mph - N/A   Overcast
4:35 AM 51.8 °F 51.8 °F 100% 29.98 in 3.0 mi Calm Calm - N/A   Overcast
4:55 AM 48.2 °F 48.2 °F 100% 29.99 in 0.5 mi Calm Calm - N/A Fog Fog
5:15 AM 48.2 °F 48.2 °F 100% 29.99 in 0.2 mi Calm Calm - N/A Fog Fog
5:35 AM 48.2 °F 48.2 °F 100% 30.00 in 0.2 mi Calm Calm - N/A Fog Fog
5:55 AM 50.0 °F 50.0 °F 100% 30.01 in 0.8 mi Calm Calm - N/A   Overcast
6:15 AM 48.2 °F 48.2 °F 100% 30.01 in 3.0 mi Calm Calm - N/A   Overcast
6:35 AM 50.0 °F 50.0 °F 100% 30.02 in 3.0 mi Calm Calm - N/A   Overcast
6:55 AM 50.0 °F 50.0 °F 100% 30.02 in 2.0 mi Calm Calm - N/A   Overcast
7:15 AM 51.8 °F 51.8 °F 100% 30.04 in 3.0 mi Calm Calm - N/A   Overcast
7:35 AM 51.8 °F 51.8 °F 100% 30.05 in 2.5 mi North 4.6 mph - N/A   Overcast
7:55 AM 53.6 °F 53.6 °F 100% 30.07 in 2.0 mi NNW 4.6 mph - N/A   Overcast
8:15 AM 55.4 °F 55.4 °F 100% 30.08 in 3.0 mi Calm Calm - N/A   Overcast
8:35 AM 57.2 °F 57.2 °F 100% 30.08 in 2.5 mi Calm Calm - N/A   Overcast
8:55 AM 60.8 °F 60.8 °F 100% 30.09 in 3.0 mi WNW 8.1 mph - N/A   Partly Cloudy
9:15 AM 60.8 °F 60.8 °F 100% 30.12 in 5.0 mi NW 8.1 mph - N/A   Scattered Clouds
9:35 AM 62.6 °F 62.6 °F 100% 30.13 in 5.0 mi WNW 6.9 mph - N/A   Mostly Cloudy
9:55 AM 64.4 °F 60.8 °F 88% 30.13 in 7.0 mi NNW 4.6 mph - N/A   Partly Cloudy
10:15 AM 66.2 °F 59.0 °F 78% 30.14 in 7.0 mi North 5.8 mph - N/A   Clear
10:35 AM 69.8 °F 55.4 °F 60% 30.14 in 10.0 mi North 16.1 mph 20.7 mph N/A   Clear
10:55 AM 71.6 °F 46.4 °F 41% 30.15 in 10.0 mi NE 20.7 mph 28.8 mph N/A   Clear
11:15 AM 73.4 °F 39.2 °F 29% 30.15 in 10.0 mi NE 17.3 mph 27.6 mph N/A   Clear
11:35 AM 73.4 °F 39.2 °F 29% 30.16 in 10.0 mi NNE 18.4 mph 24.2 mph N/A   Clear
11:55 AM 73.4 °F 35.6 °F 25% 30.16 in 10.0 mi NE 20.7 mph 25.3 mph N/A   Clear
12:15 PM 75.2 °F 33.8 °F 22% 30.16 in 10.0 mi NE 12.7 mph 25.3 mph N/A   Clear
12:35 PM 75.2 °F 33.8 °F 22% 30.16 in 10.0 mi ENE 15.0 mph 26.5 mph N/A   Clear
12:55 PM 75.2 °F 32.0 °F 21% 30.16 in 10.0 mi NNE 13.8 mph 25.3 mph N/A   Clear
1:15 PM 75.2 °F 32.0 °F 21% 30.15 in 10.0 mi NNE 11.5 mph 19.6 mph N/A   Clear
1:35 PM 75.2 °F 32.0 °F 21% 30.14 in 10.0 mi NNE 15.0 mph 20.7 mph N/A   Clear
1:55 PM 75.2 °F 32.0 °F 21% 30.13 in 10.0 mi NE 15.0 mph 20.7 mph N/A   Clear
2:15 PM 75.2 °F 32.0 °F 21% 30.13 in 10.0 mi East 17.3 mph 21.9 mph N/A   Clear
2:35 PM 75.2 °F 32.0 °F 21% 30.12 in 10.0 mi ENE 15.0 mph 20.7 mph N/A   Clear
2:55 PM 75.2 °F 30.2 °F 19% 30.12 in 9.0 mi NNE 9.2 mph - N/A   Clear
3:15 PM 77.0 °F 30.2 °F 18% 30.12 in 10.0 mi NNE 11.5 mph 20.7 mph N/A   Clear
3:35 PM 77.0 °F 30.2 °F 18% 30.12 in 10.0 mi ENE 11.5 mph 17.3 mph N/A   Clear
3:55 PM 77.0 °F 30.2 °F 18% 30.12 in 10.0 mi NE 11.5 mph - N/A   Clear
4:15 PM 77.0 °F 30.2 °F 18% 30.12 in 10.0 mi NNE 11.5 mph - N/A   Clear
4:35 PM 77.0 °F 30.2 °F 18% 30.12 in 10.0 mi East 13.8 mph 19.6 mph N/A   Clear
4:55 PM 75.2 °F 28.4 °F 18% 30.12 in 10.0 mi NE 10.4 mph 16.1 mph N/A   Clear
5:15 PM 75.2 °F 26.6 °F 17% 30.13 in 10.0 mi NE 11.5 mph 17.3 mph N/A   Clear
5:35 PM 73.4 °F 26.6 °F 18% 30.13 in 10.0 mi NE 8.1 mph - N/A   Clear
5:55 PM 73.4 °F 26.6 °F 18% 30.13 in 10.0 mi NE 9.2 mph - N/A   Clear
6:15 PM 71.6 °F 28.4 °F 20% 30.14 in 10.0 mi NE 6.9 mph - N/A   Clear
6:35 PM 69.8 °F 28.4 °F 21% 30.14 in 10.0 mi Calm Calm - N/A   Clear
6:55 PM 66.2 °F 28.4 °F 24% 30.15 in 10.0 mi Calm Calm - N/A   Clear
7:15 PM 64.4 °F 28.4 °F 26% 30.15 in 10.0 mi NNE 3.5 mph - N/A   Clear
7:35 PM 62.6 °F 28.4 °F 27% 30.15 in 10.0 mi Calm Calm - N/A   Clear
7:55 PM 57.2 °F 30.2 °F 36% 30.16 in 10.0 mi North 4.6 mph - N/A   Clear
8:15 PM 57.2 °F 30.2 °F 36% 30.16 in 10.0 mi Calm Calm - N/A   Clear
8:35 PM 53.6 °F 30.2 °F 41% 30.17 in 10.0 mi Calm Calm - N/A   Clear
8:55 PM 53.6 °F 30.2 °F 41% 30.17 in 10.0 mi North 5.8 mph - N/A   Clear
9:15 PM 51.8 °F 32.0 °F 47% 30.18 in 10.0 mi North 4.6 mph - N/A   Clear
9:35 PM 51.8 °F 30.2 °F 44% 30.18 in 10.0 mi Calm Calm - N/A   Clear
9:55 PM 51.8 °F 30.2 °F 44% 30.18 in 10.0 mi Calm Calm - N/A   Clear
10:15 PM 48.2 °F 30.2 °F 50% 30.18 in 10.0 mi Calm Calm - N/A   Clear
10:35 PM 51.8 °F 28.4 °F 41% 30.18 in 10.0 mi Calm Calm - N/A   Clear
10:55 PM 48.2 °F 30.2 °F 50% 30.18 in 10.0 mi Calm Calm - N/A   Clear
11:15 PM 46.4 °F 30.2 °F 53% 30.18 in 10.0 mi Calm Calm - N/A   Clear
11:35 PM 44.6 °F 30.2 °F 57% 30.17 in 10.0 mi Calm Calm - N/A   Clear
11:55 PM 44.6 °F 30.2 °F 57% 30.17 in 10.0 mi Calm Calm - N/A   Clear